Location: Dattensoll
(49.9928°N, 9.8954°E)
Time: 09:58:25
(UTC+00:00)

Cosmos 1066 Rocket - Pass Details

Date: 19 May 2025
Orbit: 798 x 892 km, 81.2° (Epoch: 23 June)

Event Time Altitude Azimuth Distance (km) Brightness Sun altitude
Exits shadow 23:04:58 38° 178° (S) 1,272 4.6 -20.0°
Maximum altitude 23:07:11 78° 100° (E) 886 4.2 -20.0°
Drops below altitude 10° 23:12:57 10° 15° (NNE) 2,538 7.8 -20.0°
Sets 23:15:26 0° 14° (NNE) 3,492 8.8 -20.0°
